Weather History for Indian Springs, NV

Change the Weather History Date:

Wednesday, November 20, 2013

  Actual Average (KDRA) Record (KDRA)
Temperature  
Mean Temperature 52 °F -  
Max Temperature 63 °F 59 °F 73 °F (2002)
Min Temperature 42 °F 36 °F 32 °F (2000)
Degree Days  
Heating Degree Days 12    
Growing Degree Days 2 (Base 50)    
Moisture  
Dew Point 34 °F    
Average Humidity 53    
Maximum Humidity 64    
Minimum Humidity 34    
Precipitation  
Precipitation 0.00 in - - ()
Sea Level Pressure  
Sea Level Pressure 29.84 in    
Wind  
Wind Speed 3 mph (SSE)    
Max Wind Speed 13 mph    
Max Gust Speed -    
Visibility 10 miles    
Events      
Averages and records for this station are not official NWS values.
T = Trace of Precipitation, MM = Missing Value Source: NWS Daily Summary

Daily Weather History Graph

Daily Weather History Graph

Search for Another Location

Airport:

Trip Planner

Search our weather history database for the weather conditions in past years. The results will help you decide how hot, cold, wet, or windy it might be!

Date:

Astronomy

Nov. 20, 2013 Rise Set
Actual Time 6:25 AM PST 4:30 PM PST
Civil Twilight 5:57 AM PST 4:58 PM PST
Nautical Twilight 5:26 AM PST 5:29 PM PST
Astronomical Twilight 4:55 AM PST 6:00 PM PST
Moon 7:17 PM PST (11/20) 8:54 AM PST (11/20)
Length of Visible Light 11h 00m
Length of Day
10h 04m
Waning Gibbous, 91% of the Moon is Illuminated
Nov 20
Waning Gibbous
Nov 25
Last Quarter
Dec 2
New
Dec 9
First Quarter
Dec 17
Full

Hourly Weather History & Observations

Time (PST) Temp. Windchill Dew Point Humidity Pressure Visibility Wind Dir Wind Speed Gust Speed Precip Events Conditions
12:58 AM 43.9 °F - 31.8 °F 63% 29.91 in 10.0 mi Calm Calm - N/A   Clear
1:58 AM 42.6 °F - 30.9 °F 63% 29.90 in 10.0 mi Calm Calm - N/A   Overcast
2:58 AM 42.8 °F 41.1 °F 30.7 °F 62% 29.88 in 10.0 mi East 3.5 mph - N/A   Mostly Cloudy
3:58 AM 43.3 °F - 31.6 °F 63% 29.87 in 10.0 mi Calm Calm - N/A   Mostly Cloudy
4:58 AM 43.7 °F 41.1 °F 32.4 °F 64% 29.87 in 10.0 mi West 4.6 mph - N/A   Overcast
5:58 AM 45.0 °F - 32.9 °F 63% 29.88 in 10.0 mi Calm Calm - N/A   Scattered Clouds
6:58 AM 43.9 °F 42.3 °F 31.8 °F 63% 29.88 in 10.0 mi NE 3.5 mph - N/A   Unknown
7:58 AM 44.6 °F 42.2 °F 32.5 °F 63% 29.89 in 10.0 mi West 4.6 mph - N/A   Overcast
8:58 AM 49.5 °F - 34.3 °F 56% 29.89 in 10.0 mi Calm Calm - N/A   Overcast
9:58 AM 53.6 °F - 34.9 °F 49% 29.88 in 10.0 mi Calm Calm - N/A   Mostly Cloudy
10:58 AM 57.6 °F - 35.6 °F 44% 29.86 in 10.0 mi West 4.6 mph - N/A   Clear
11:58 AM 60.8 °F - 35.2 °F 38% 29.83 in 10.0 mi WSW 3.5 mph - N/A   Clear
12:58 PM 61.7 °F - 35.6 °F 38% 29.81 in 10.0 mi Variable 2.3 mph - N/A   Partly Cloudy
1:58 PM 63.9 °F - 34.9 °F 34% 29.80 in 10.0 mi Variable 2.3 mph - N/A   Clear
2:58 PM 62.4 °F - 34.7 °F 36% 29.80 in 10.0 mi East 2.3 mph - N/A   Clear
3:58 PM 61.2 °F - 36.9 °F 40% 29.80 in 10.0 mi East 12.7 mph - N/A   Clear
4:58 PM 57.6 °F - 36.9 °F 46% 29.80 in 10.0 mi ESE 10.4 mph - N/A   Clear
5:58 PM 54.0 °F - 36.3 °F 51% 29.82 in 10.0 mi SE 5.8 mph - N/A   Clear
6:58 PM 52.7 °F - 35.8 °F 53% 29.82 in 10.0 mi ESE 10.4 mph - N/A   Clear
7:58 PM 51.3 °F - 34.3 °F 52% 29.82 in 10.0 mi South 1.2 mph - N/A   Partly Cloudy
8:58 PM 49.3 °F - 33.1 °F 54% 29.81 in 10.0 mi ESE 4.6 mph - N/A   Overcast
9:58 PM 49.1 °F - 34.2 °F 56% 29.81 in 10.0 mi Calm Calm - N/A   Mostly Cloudy
10:58 PM 46.6 °F - 32.9 °F 59% 29.81 in 10.0 mi West 4.6 mph - N/A   Clear
11:58 PM 47.3 °F - 34.0 °F 60% 29.81 in 10.0 mi West 2.3 mph - N/A   Mostly Cloudy